Location: Goettingen
(51.5300°N, 9.9433°E)
Time: 12:33:08
(UTC+02:00)

ISS - Pass Details

Date: 20 September 2020
Orbit: 419 x 420 km, 51.6° (Epoch: 18 September)

Event Time Altitude Azimuth Distance (km) Brightness Sun altitude
Rises 21:39:27 0° 250° (WSW) 2,363 0.6 -21.2°
Reaches altitude 10° 21:41:33 10° 248° (WSW) 1,500 -0.5 -21.4°
Enters shadow 21:43:52 40° 237° (WSW) 629 -2.8 -21.7°
